Weather Roundup
Issued by NWS Chicago, IL

Home | Current Version | Previous Version | Graphics & Text | Print | Product List | Glossary On
Versions: 1 2 3 4 5 6 7 8 9 10 11 12 13 14 15 16 17 18 19 20 21 22 23 24 25 26 27 28 29 30 31 32 33 34 35 36 37 38 39 40 41 42 43 44 45 46 47 48 49 50
000
NZUS59 KLOT 271858
HRRLOT

CHICAGO AREA WEATHER ROUNDUP
NATIONAL WEATHER SERVICE CHICAGO/ROMEOVILLE IL
200 PM CDT WED AUG 27 2014

NOTE: "FAIR" INDICATES FEW OR NO CLOUDS BELOW 12,000 FEET WITH NO
SIGNIFICANT WEATHER AND/OR OBSTRUCTIONS TO VISIBILITY.

* THESE STATIONS ARE NOT UNDER NWS QUALITY CONTROL. THEY ALSO MAY NOT
  REPORT WEATHER SUCH AS PRECIPITATION OR FOG.

ILZ005-006-012>014-019>023-272000-
NORTHEAST ILLINOIS

CITY           SKY/WX    TMP DP  RH WIND       PRES   REMARKS
OHARE          PTSUNNY   80  61  52 E9        30.13F HX  81
MIDWAY         PTSUNNY   80  64  58 VRB6      30.13F HX  82
AURORA         PTSUNNY   81  62  52 CALM      30.14F HX  82
WAUKEGAN       MOSUNNY   74  63  68 NE7       30.15F
DUPAGE AIRPORT SUNNY     84  60  44 VRB3      30.14S HX  84
WHEELING       MOSUNNY   78  65  63 NE8       30.16S HX  80
NORTHERLY IS     N/A     73  64  73 NE10        N/A
$$

WIZ051-052-058>065-066-070>072-272000-
SOUTHEAST WISCONSIN

CITY           SKY/WX    TMP DP  RH WIND       PRES   REMARKS
MILWAUKEE      PTSUNNY   71  62  73 NE9       30.17S
KENOSHA*       MOSUNNY   76  65  68 NE7       30.17S
RACINE*        SUNNY     74  61  63 NE10      30.18F
WAUKESHA       PTSUNNY   72  61  68 E5        30.18S
$$

INZ001>003-010>013-019-020-272000-
NORTHWEST INDIANA

CITY           SKY/WX    TMP DP  RH WIND       PRES   REMARKS
GARY*          MOSUNNY   77  64  65 N10       30.15S
MICHIGAN CITY* NOT AVBL
RENSSELAER*    NOT AVBL
VALPARAISO     MOSUNNY   78  64  61 NW8       30.14S HX  80
$$

LMZ740>746-272000-
SOUTHERN LAKE MICHIGAN

STATION/POSITION TIME  SKY/WX   TEMP WIND        PRES    VSBY
                                AIR  DIR/SP/G
                 (UTC)          (F)  (DEG/KT/KT) (MB)    (MI)
HARRISON CRIB    1800            70   30/  6/  7   N/A
BURNHAM HARBOR   1800            74   40/  6/  7   N/A
CALUMET HARBOR   1800            72   30/  5/ 10 1019.8R
BURNS HARBOR     NOT AVBL
MICHIGAN CITY    1800            70  350/ 13/ 14   N/A
$$

ABBREVIATIONS USED IN REMARKS
   TC - TEMPERATURE IN CELSIUS
  WCI - WIND CHILL INDEX
   HX - HEAT INDEX
  VSB - VISIBILITY
$$



USA.gov is the U.S. government's official web portal to all federal, state and local government web resources and services.